Regional Weather Roundup
Issued by NWS

Home | Current Version | Previous Version | Text Only | Print | Product List | Glossary On
Versions: 1 2 3 4 5 6 7 8 9 10 11 12 13 14 15 16 17 18 19 20 21 22 23 24 25 26 27
000
ASUS45 KSLC 211210
RWRUT

UTAH REGIONAL WEATHER ROUNDUP
NATIONAL WEATHER SERVICE SALT LAKE CITY UT
600 AM MDT THU SEP 21 2017

UTZ001>011-023>025-211300-

NORTHERN UTAH

CITY           SKY/WX    TMP DP  RH WIND       PRES   REMARKS
BRIGHAM CITY   CLOUDY    50  40  69 N5        29.74F
HILL AFB       CLOUDY    48  41  76 CALM      29.74S
LOGAN          CLOUDY    48  44  86 CALM      29.76R
OGDEN          CLOUDY    50  42  74 W3        29.73R
SALT LAKE CITY MOCLDY    52  43  71 NW10      29.74R
TOOELE VALLEY  CLOUDY    52  45  76 NE3       29.75S
WENDOVER       LGT RAIN  51  38  60 NW16G23   29.75R
HEBER CITY     MOCLDY    63  30  29 S10       29.69S
WEST JORDAN    PTCLDY    48  46  91 W5        29.76R

$$

UTZ011>015-024>027-211300-

CENTRAL/NORTHEAST UTAH

CITY           SKY/WX    TMP DP  RH WIND       PRES   REMARKS
PROVO AIRPORT  PTCLDY    53  46  77 NW13      29.71R
MOAB/CANYONLAN CLEAR     69  35  28 S10G21    29.76R
DELTA          CLEAR     52  36  54 W5        29.71R
PRICE          CLEAR     57  33  40 SE5       29.80S
ROOSEVELT      CLEAR     46  36  66 W7        29.75R
VERNAL         CLEAR     57  35  43 SW7       29.73R

$$

UTZ013>016-019>022-027-211300-

SOUTHERN UTAH

CITY           SKY/WX    TMP DP  RH WIND       PRES   REMARKS
BRYCE CANYON   CLEAR     49  39  68 SE16G23   29.95F
CEDAR CITY     CLEAR     62  35  36 S29G46    29.72S
MILFORD        CLEAR     60  39  45 S21       29.70F
ST GEORGE      MOSUNNY   71  39  31 SE15      29.69R
HANKSVILLE     CLEAR     68  34  28 SW12      29.79S
BLANDING         N/A     51  35  53 E5        30.02S

$$

REGIONAL REPORTS     COLORADO/ARIZONA

CITY           SKY/WX    TMP DP  RH WIND       PRES   REMARKS
CRAIG, CO      CLEAR     61  28  28 SW12      29.81S
GRAND JUNCTION CLEAR     68  36  30 SE20      29.82R
RIFLE, CO      CLEAR     57  29  34 SW3       29.84R
MONTROSE, CO   CLEAR     64  31  28 S10       29.94F
CORTEZ, CO     CLEAR     46  35  65 NE5       30.00S
PAGE, AZ       CLEAR     67  42  40 S13       29.80S
GRAND CANYON   CLEAR     52  43  71 S14       29.98F
KINGMAN, AZ    CLEAR     67  37  33 S12       29.80S
FLAGSTAFF, AZ  CLEAR     51  34  52 SW12      30.05S

$$

REGIONAL REPORTS    NEVADA/IDAHO/WYOMING

CITY           SKY/WX    TMP DP  RH WIND       PRES   REMARKS
LAS VEGAS, NV  CLEAR     73  44  35 S15G23    29.64R
ELY, NY        CLOUDY    45  36  70 N9        29.77R
ELKO, NV       LGT RAIN  41  38  89 SW5       29.81R
POCATELLO, ID  LGT RAIN  41  39  93 S6        29.79R
BURLEY, ID     LGT RAIN  43  42  97 NW8       29.78R
FORT BRIDGER,    N/A     41  38  90 NW8       29.79S
EVANSTON, WY   CLOUDY    40  37  89 N8        29.76R WCI  34
ROCK SPRINGS,  CLEAR     51  31  46 CALM      29.76R
KEMMERER, WY     N/A     36  34  93 W3        29.77F

$$




USA.gov is the U.S. government's official web portal to all federal, state and local government web resources and services.